Home   Weather   Öhringen   Past weeks

Flag for Germany Past Weather in Öhringen, Baden-Württemberg, Germany — Yesterday and Last 2 Weeks

54 °F

Partly sunny.

Feels Like: 52 °F
Forecast: 44 / 57 °F
Wind: 7 mph from West

Location: Niederstetten

Current Time: Oct 25, 2016 at 12:26:06 PM

Latest Report: Oct 25, 2016 at 11:20 AM

Visibility: N/A

Pressure: 30.18 "Hg

Humidity: 88%

Dew Point: 50 °F

Location of ÖhringenLocation

Past Weather in Öhringen — Graph


Öhringen Temperature Yesterday

Maximum temperature yesterday: 59 °F (at 12:20 PM)
Minimum temperature yesterday: 46 °F (at 12:20 AM)
Average temperature yesterday: 54 °F

High & Low Weather Summary for the Past Weeks

High66 °F (Oct 16, 2:20 PM)100% (Oct 11, 3:20 AM)30.21 "Hg (Oct 11, 3:20 AM)
Low36 °F (Oct 12, 8:20 AM)46% (Oct 16, 3:20 PM)29.68 "Hg (Oct 14, 6:20 PM)
Average47 °F88%30.01 "Hg
* Reported Oct 10 10:20 AM — Oct 25 10:20 AM, Öhringen, Weather by CustomWeather, © 2016

Note: Actual official high and low records may vary slightly from our data, if they occured in-between our weather recording intervals... More about our weather records


Öhringen Weather History for the Previous 24 Hours

Scroll right to see more
Time TempWeatherWind HumidityBarometerVisibility
10:20 AM
Tue, Oct 25
54 °FMostly cloudy.8 mph94%30.15 "HgN/A
9:20 AM54 °FMostly cloudy.7 mph94%30.15 "HgN/A
8:20 AM54 °FLight rain. Mostly cloudy.8 mph94%30.09 "Hg5 mi
7:20 AM55 °FLight rain. Low clouds.12 mph94%30.07 "Hg4 mi
6:20 AM55 °FDrizzle. Fog.16 mph94%30.07 "Hg3 mi
6:04 AM55 °FLow clouds.14 mph94%30.04 "Hg4 mi
5:20 AM55 °FRain. Mostly cloudy.13 mph94%30.04 "Hg4 mi
4:20 AM55 °FRain. Fog.14 mph94%30.04 "Hg3 mi
3:20 AM55 °FRain. Mostly cloudy.9 mph94%30.01 "Hg4 mi
2:20 AM54 °FLight rain. Mostly cloudy.5 mph100%29.98 "Hg5 mi
1:20 AM54 °FLight rain. Low clouds.3 mph100%29.98 "Hg5 mi
12:20 AM55 °FLight rain. Mostly cloudy.6 mph94%30.01 "Hg6 mi
11:20 PM
Mon, Oct 24
55 °FLight rain. Overcast.5 mph94%29.98 "HgN/A
10:20 PM57 °FOvercast.3 mph88%29.98 "HgN/A
9:20 PM55 °FLight rain. Passing clouds.2 mph94%29.95 "HgN/A
8:20 PM55 °FPassing clouds.3 mph88%29.95 "HgN/A
7:20 PM57 °FPassing clouds.6 mph82%29.92 "HgN/A
6:20 PM57 °FPassing clouds.6 mph82%29.92 "HgN/A
5:20 PM59 °FBroken clouds.12 mph82%29.92 "HgN/A
5:00 PM59 °FBroken clouds.12 mph82%29.92 "HgN/A
4:20 PM59 °FPartly sunny.10 mph82%29.92 "HgN/A
3:20 PM57 °FScattered showers. Partly sunny.10 mph88%29.92 "HgN/A
2:20 PM57 °FLight rain. Partly sunny.10 mph94%29.92 "HgN/A
1:46 PM59 °FSprinkles. Partly sunny.10 mph88%29.92 "Hg4 mi
1:20 PM59 °FScattered showers. Partly sunny.9 mph88%29.92 "HgN/A
12:20 PM59 °FPartly sunny.8 mph88%29.92 "HgN/A
Weather by CustomWeather, © 2016

See weather overviewHow to use our weather pages